Location: Dodgeville
(42.9600°N, 90.1300°W)
Time: 05:07:11
(UTC-05:00)

Uosat F - Visible Passes

Search period start: 01 September 2015 00:00
Search period end: 11 September 2015 00:00
Orbit: 750 x 762 km, 98.7° (Epoch: 31 August)

Date Brightness Start Highest point End Pass type
(mag) Time Alt. Az. Time Alt. Az. Time Alt. Az.
01 Sep 14.0 04:58:17 10° ENE 05:00:37 14° E 05:03:13 10° ESE visible
02 Sep 12.2 05:55:48 10° NNE 06:00:40 49° E 06:05:30 10° S visible
03 Sep 13.7 05:17:17 10° NE 05:20:59 21° E 05:24:49 10° SE visible
05 Sep 13.0 05:36:49 10° NNE 05:41:16 32° E 05:45:46 10° SSE visible
06 Sep 14.0 04:59:05 10° ENE 05:01:27 14° E 05:04:04 10° ESE visible
07 Sep 12.2 05:56:37 10° NNE 06:01:29 49° E 06:06:20 10° S visible
08 Sep 13.7 05:18:06 10° NE 05:21:48 21° E 05:25:39 10° SE visible
10 Sep 13.0 05:37:38 10° NNE 05:42:05 32° E 05:46:36 10° SSE visible
